| time (UTC) | temp F | wind direction | speed knots | gust knots | rain 1hr in | rain 24hr in | rain mn in | humidity % | barometer mb |
| 20260906231448 | 64 | 154 | 0.9 | 2.6 | 0.00 | 0.00 | 0.00 | 71 | 1019.1 |
| 20260906230947 | 65 | 155 | 0.0 | 0.0 | 0.00 | 0.00 | 0.00 | 71 | 1019.1 |
| 20260906230448 | 65 | 154 | 0.0 | 0.9 | 0.00 | 0.00 | 0.00 | 71 | 1019.2 |
| 20260906225949 | 65 | 155 | 0.0 | 2.6 | 0.00 | 0.00 | 0.00 | 69 | 1019.3 |
| 20260906225845 | 65 | 155 | 1.7 | 2.6 | 0.00 | 0.00 | 0.00 | 69 | 1019.3 |
| 20260906224949 | 65 | 154 | 1.7 | 2.6 | 0.00 | 0.00 | 0.00 | 70 | 1019.2 |
| 20260906224836 | 65 | 154 | 0.9 | 1.7 | 0.00 | 0.00 | 0.00 | 70 | 1019.3 |
| 20260906223949 | 65 | 155 | 0.9 | 1.7 | 0.00 | 0.00 | 0.00 | 71 | 1019.3 |
| 20260906223447 | 65 | 155 | 0.0 | 1.7 | 0.00 | 0.00 | 0.00 | 71 | 1019.3 |
| 20260906222947 | 65 | 155 | 0.0 | 0.0 | 0.00 | 0.00 | 0.00 | 71 | 1019.4 |
| 20260906222447 | 65 | 155 | 0.0 | 0.9 | 0.00 | 0.00 | 0.00 | 70 | 1019.4 |
| 20260906222328 | 65 | 155 | 0.0 | 1.7 | 0.00 | 0.00 | 0.00 | 70 | 1019.4 |
| 20260906221459 | 65 | 155 | 0.0 | 1.7 | 0.00 | 0.00 | 0.00 | 69 | 1019.5 |
| 20260906220948 | 65 | 155 | 0.9 | 2.6 | 0.00 | 0.00 | 0.00 | 69 | 1019.6 |
| 20260906220843 | 65 | 157 | 0.0 | 2.6 | 0.00 | 0.00 | 0.00 | 69 | 1019.5 |
| 20260906215946 | 65 | 155 | 0.0 | 0.0 | 0.00 | 0.00 | 0.00 | 68 | 1019.5 |
| 20260906215447 | 65 | 155 | 0.0 | 0.0 | 0.00 | 0.00 | 0.00 | 69 | 1019.6 |
| 20260906214946 | 66 | 155 | 0.0 | 0.0 | 0.00 | 0.00 | 0.00 | 68 | 1019.7 |
| 20260906214445 | 0 | 155 | 0.0 | 0.0 | 0.00 | 0.00 | 0.00 | 1019.7 | |
| 20260906213945 | 66 | 155 | 0.0 | 0.0 | 0.00 | 0.00 | 0.00 | 66 | 1019.8 |
| 20260906213446 | 0 | 155 | 0.0 | 0.0 | 0.00 | 0.00 | 0.00 | 1019.8 | |
| 20260906212944 | 0 | 155 | 0.0 | 2.6 | 0.00 | 0.00 | 0.00 | 1019.8 | |
| 20260906212837 | 67 | 155 | 0.9 | 3.5 | 0.00 | 0.00 | 0.00 | 66 | 1019.8 |
| 20260906211946 | 67 | 157 | 0.0 | 3.5 | 0.00 | 0.00 | 0.00 | 67 | 1019.9 |
| 20260906211445 | 67 | 151 | 1.7 | 3.5 | 0.00 | 0.00 | 0.00 | 67 | 1019.8 |
| 20260906210944 | 67 | 149 | 1.7 | 2.6 | 0.00 | 0.00 | 0.00 | 67 | 1019.8 |
| 20260906210457 | 66 | 149 | 0.9 | 2.6 | 0.00 | 0.00 | 0.00 | 67 | 1019.8 |
| 20260906210328 | 66 | 131 | 0.0 | 1.7 | 0.00 | 0.00 | 0.00 | 68 | 1019.9 |
| 20260906205447 | 66 | 142 | 0.0 | 0.0 | 0.00 | 0.00 | 0.00 | 68 | 1019.8 |
| 20260906205329 | 66 | 141 | 0.0 | 0.0 | 0.00 | 0.00 | 0.00 | 68 | 1019.8 |
| 20260906204445 | 66 | 141 | 0.0 | 0.0 | 0.00 | 0.00 | 0.00 | 69 | 1019.9 |
| 20260906203946 | 66 | 141 | 0.0 | 0.0 | 0.00 | 0.00 | 0.00 | 67 | 1020.0 |
| 20260906203444 | 67 | 141 | 0.0 | 0.0 | 0.00 | 0.00 | 0.00 | 67 | 1020.0 |
| 20260906203336 | 67 | 141 | 0.0 | 0.0 | 0.00 | 0.00 | 0.00 | 67 | 1020.1 |
| 20260906202724 | 67 | 141 | 0.0 | 0.0 | 0.00 | 0.00 | 0.00 | 67 | 1020.2 |
| 20260906202608 | 67 | 141 | 0.0 | 0.0 | 0.00 | 0.00 | 0.00 | 67 | 1020.1 |
| 20260906201443 | 67 | 142 | 0.0 | 0.0 | 0.00 | 0.00 | 0.00 | 67 | 1020.3 |
| 20260906200943 | 67 | 142 | 0.0 | 0.0 | 0.00 | 0.00 | 0.00 | 67 | 1020.2 |
| 20260906200445 | 67 | 142 | 0.0 | 0.0 | 0.00 | 0.00 | 0.00 | 68 | 1020.3 |
| 20260906195947 | 67 | 142 | 0.0 | 0.0 | 0.00 | 0.00 | 0.00 | 67 | 1020.5 |
| 20260906195446 | 67 | 142 | 0.0 | 0.0 | 0.00 | 0.00 | 0.00 | 66 | 1020.4 |
| 20260906195324 | 67 | 142 | 0.0 | 0.0 | 0.00 | 0.00 | 0.00 | 65 | 1020.5 |
| 20260906194442 | 67 | 142 | 0.0 | 0.0 | 0.00 | 0.00 | 0.00 | 65 | 1020.5 |
| 20260906193942 | 68 | 142 | 0.0 | 0.0 | 0.00 | 0.00 | 0.00 | 65 | 1020.6 |
| 20260906193443 | 68 | 142 | 0.0 | 0.0 | 0.00 | 0.00 | 0.00 | 65 | 1020.5 |
| 20260906192944 | 68 | 142 | 0.0 | 0.0 | 0.00 | 0.00 | 0.00 | 65 | 1020.5 |
| 20260906192445 | 68 | 142 | 0.0 | 0.0 | 0.00 | 0.00 | 0.00 | 63 | 1020.5 |
| 20260906191944 | 68 | 144 | 0.0 | 0.0 | 0.00 | 0.00 | 0.00 | 64 | 1020.4 |
| 20260906191443 | 68 | 144 | 0.0 | 0.0 | 0.00 | 0.00 | 0.00 | 64 | 1020.4 |
| 20260906190943 | 68 | 144 | 0.0 | 0.0 | 0.00 | 0.00 | 0.00 | 63 | 1020.4 |
| 20260906190443 | 69 | 145 | 0.0 | 0.0 | 0.00 | 0.00 | 0.00 | 63 | 1020.6 |
| 20260906190223 | 69 | 147 | 0.0 | 0.0 | 0.00 | 0.00 | 0.00 | 62 | 1020.5 |
| 20260906190115 | 69 | 145 | 0.0 | 0.0 | 0.00 | 0.00 | 0.00 | 62 | 1020.5 |
| 20260906184942 | 69 | 145 | 0.0 | 1.7 | 0.00 | 0.00 | 0.00 | 62 | 1020.6 |
| 20260906184442 | 69 | 145 | 0.0 | 1.7 | 0.00 | 0.00 | 0.00 | 62 | 1020.7 |
| 20260906183941 | 69 | 147 | 0.9 | 1.7 | 0.00 | 0.00 | 0.00 | 61 | 1020.8 |
| 20260906183442 | 69 | 147 | 0.0 | 0.9 | 0.00 | 0.00 | 0.00 | 61 | 1020.9 |
| 20260906182941 | 69 | 147 | 0.0 | 1.7 | 0.00 | 0.00 | 0.00 | 60 | 1020.9 |
| 20260906182441 | 0 | 147 | 0.0 | 1.7 | 0.00 | 0.00 | 0.00 | 1020.9 | |
| 20260906181939 | 70 | 147 | 0.0 | 2.6 | 0.00 | 0.00 | 0.00 | 58 | 1020.9 |
| 20260906181440 | 70 | 147 | 0.0 | 2.6 | 0.00 | 0.00 | 0.00 | 58 | 1020.9 |
| 20260906180942 | 71 | 147 | 0.0 | 0.0 | 0.00 | 0.00 | 0.00 | 58 | 1021.0 |
| 20260906180440 | 71 | 147 | 0.0 | 0.0 | 0.00 | 0.00 | 0.00 | 58 | 1021.2 |
| 20260906175942 | 72 | 147 | 0.0 | 1.7 | 0.00 | 0.00 | 0.00 | 57 | 1021.1 |
| 20260906175441 | 72 | 147 | 0.9 | 1.7 | 0.00 | 0.00 | 0.00 | 55 | 1021.3 |
| 20260906174940 | 72 | 148 | 0.0 | 0.0 | 0.00 | 0.00 | 0.00 | 55 | 1021.4 |
| 20260906174438 | 0 | 148 | 0.0 | 0.0 | 0.00 | 0.00 | 0.00 | 1021.4 | |
| 20260906174316 | 73 | 148 | 0.0 | 0.0 | 0.00 | 0.00 | 0.00 | 52 | 1021.4 |
| 20260906173816 | 0 | 148 | 0.0 | 0.0 | 0.00 | 0.00 | 0.00 | 1021.5 | |
| 20260906172939 | 74 | 148 | 0.0 | 0.9 | 0.00 | 0.00 | 0.00 | 52 | 1021.6 |
| 20260906172440 | 74 | 148 | 0.0 | 0.9 | 0.00 | 0.00 | 0.00 | 52 | 1021.6 |
| 20260906171940 | 74 | 149 | 0.0 | 0.0 | 0.00 | 0.00 | 0.00 | 52 | 1021.6 |
| 20260906171818 | 74 | 148 | 0.0 | 1.7 | 0.00 | 0.00 | 0.00 | 51 | 1021.6 |
| 20260906170940 | 74 | 145 | 0.0 | 4.3 | 0.00 | 0.00 | 0.00 | 51 | 1021.6 |
| 20260906170441 | 74 | 147 | 2.6 | 4.3 | 0.00 | 0.00 | 0.00 | 51 | 1021.7 |
| 20260906165938 | 74 | 151 | 1.7 | 4.3 | 0.00 | 0.00 | 0.00 | 51 | 1021.7 |
| 20260906165438 | 74 | 148 | 1.7 | 6.1 | 0.00 | 0.00 | 0.00 | 49 | 1021.8 |
| 20260906164940 | 74 | 154 | 5.2 | 6.1 | 0.00 | 0.00 | 0.00 | 49 | 1021.8 |
| 20260906164439 | 75 | 157 | 1.7 | 6.1 | 0.00 | 0.00 | 0.00 | 49 | 1021.8 |
| 20260906163938 | 75 | 162 | 3.5 | 6.1 | 0.00 | 0.00 | 0.00 | 49 | 1021.9 |
| 20260906163837 | 75 | 151 | 0.9 | 6.1 | 0.00 | 0.00 | 0.00 | 49 | 1022.0 |
| 20260906162938 | 75 | 151 | 0.9 | 6.1 | 0.00 | 0.00 | 0.00 | 49 | 1022.0 |
| 20260906162440 | 75 | 135 | 2.6 | 6.1 | 0.00 | 0.00 | 0.00 | 49 | 1022.1 |
| 20260906161938 | 75 | 155 | 3.5 | 6.1 | 0.00 | 0.00 | 0.00 | 48 | 1022.0 |
| 20260906161437 | 75 | 186 | 3.5 | 7.8 | 0.00 | 0.00 | 0.00 | 48 | 1022.2 |
| 20260906160937 | 75 | 159 | 3.5 | 9.6 | 0.00 | 0.00 | 0.00 | 49 | 1022.0 |
| 20260906160451 | 75 | 147 | 4.3 | 9.6 | 0.00 | 0.00 | 0.00 | 48 | 1022.0 |
| 20260906160325 | 75 | 157 | 6.1 | 8.7 | 0.00 | 0.00 | 0.00 | 48 | 1022.1 |
| 20260906155824 | 76 | 152 | 4.3 | 7.8 | 0.00 | 0.00 | 0.00 | 48 | 1022.1 |
| 20260906154939 | 76 | 185 | 4.3 | 7.8 | 0.00 | 0.00 | 0.00 | 48 | 1022.0 |
| 20260906154438 | 76 | 151 | 5.2 | 7.8 | 0.00 | 0.00 | 0.00 | 48 | 1022.0 |
| 20260906153935 | 76 | 162 | 3.5 | 8.7 | 0.00 | 0.00 | 0.00 | 48 | 1022.1 |
| 20260906153434 | 76 | 161 | 5.2 | 8.7 | 0.00 | 0.00 | 0.00 | 47 | 1022.2 |
| 20260906152933 | 76 | 164 | 4.3 | 6.1 | 0.00 | 0.00 | 0.00 | 48 | 1022.4 |
| 20260906152830 | 76 | 159 | 1.7 | 6.1 | 0.00 | 0.00 | 0.00 | 48 | 1022.5 |
| 20260906151934 | 76 | 159 | 3.5 | 9.6 | 0.00 | 0.00 | 0.00 | 46 | 1022.5 |
| 20260906151831 | 76 | 175 | 5.2 | 10.4 | 0.00 | 0.00 | 0.00 | 46 | 1022.5 |
| 20260906150934 | 76 | 145 | 5.2 | 10.4 | 0.00 | 0.00 | 0.00 | 46 | 1022.4 |
| 20260906150431 | 76 | 148 | 2.6 | 9.6 | 0.00 | 0.00 | 0.00 | 46 | 1022.4 |
| 20260906145932 | 76 | 154 | 6.1 | 10.4 | 0.00 | 0.00 | 0.00 | 46 | 1022.5 |
| 20260906145431 | 76 | 162 | 7.0 | 10.4 | 0.00 | 0.00 | 0.00 | 46 | 1022.3 |
| 20260906144934 | 76 | 157 | 3.5 | 8.7 | 0.00 | 0.00 | 0.00 | 46 | 1022.4 |
| 20260906144431 | 76 | 157 | 4.3 | 8.7 | 0.00 | 0.00 | 0.00 | 47 | 1022.3 |
| 20260906143932 | 76 | 206 | 5.2 | 10.4 | 0.00 | 0.00 | 0.00 | 47 | 1022.5 |
| 20260906143819 | 76 | 141 | 7.0 | 10.4 | 0.00 | 0.00 | 0.00 | 44 | 1022.6 |
| 20260906143211 | 76 | 154 | 6.1 | 8.7 | 0.00 | 0.00 | 0.00 | 45 | 1022.6 |
| 20260906143101 | 76 | 164 | 6.1 | 9.6 | 0.00 | 0.00 | 0.00 | 45 | 1022.7 |
| 20260906141933 | 76 | 193 | 5.2 | 7.8 | 0.00 | 0.00 | 0.00 | 47 | 1022.7 |
| 20260906141432 | 76 | 197 | 5.2 | 7.8 | 0.00 | 0.00 | 0.00 | 48 | 1022.8 |
| 20260906141321 | 76 | 172 | 4.3 | 10.4 | 0.00 | 0.00 | 0.00 | 48 | 1022.7 |
| 20260906140818 | 76 | 161 | 6.1 | 10.4 | 0.00 | 0.00 | 0.00 | 48 | 1022.9 |
| 20260906135932 | 76 | 149 | 4.3 | 8.7 | 0.00 | 0.00 | 0.00 | 49 | 1022.8 |
| 20260906135433 | 75 | 152 | 4.3 | 10.4 | 0.00 | 0.00 | 0.00 | 49 | 1023.0 |
| 20260906134933 | 76 | 157 | 5.2 | 12.2 | 0.00 | 0.00 | 0.00 | 48 | 1023.1 |
| 20260906134431 | 76 | 154 | 5.2 | 12.2 | 0.00 | 0.00 | 0.00 | 47 | 1023.2 |
| 20260906133935 | 75 | 147 | 4.3 | 10.4 | 0.00 | 0.00 | 0.00 | 47 | 1023.2 |
| 20260906133432 | 75 | 155 | 6.1 | 11.3 | 0.00 | 0.00 | 0.00 | 48 | 1023.2 |
| 20260906133321 | 75 | 149 | 7.0 | 11.3 | 0.00 | 0.00 | 0.00 | 48 | 1023.1 |
| 20260906132459 | 75 | 165 | 5.2 | 11.3 | 0.00 | 0.00 | 0.00 | 49 | 1023.3 |
| 20260906131933 | 75 | 149 | 3.5 | 8.7 | 0.00 | 0.00 | 0.00 | 49 | 1023.4 |
| 20260906131433 | 74 | 161 | 2.6 | 12.2 | 0.00 | 0.00 | 0.00 | 49 | 1023.6 |
| 20260906130932 | 75 | 152 | 8.7 | 12.2 | 0.00 | 0.00 | 0.00 | 47 | 1023.6 |
| 20260906130433 | 75 | 154 | 7.8 | 10.4 | 0.00 | 0.00 | 0.00 | 48 | 1023.6 |
| 20260906125931 | 75 | 185 | 4.3 | 11.3 | 0.00 | 0.00 | 0.00 | 50 | 1023.7 |
| 20260906125432 | 75 | 207 | 6.1 | 11.3 | 0.00 | 0.00 | 0.00 | 50 | 1023.8 |
| 20260906125320 | 75 | 144 | 6.1 | 11.3 | 0.00 | 0.00 | 0.00 | 51 | 1023.7 |
| 20260906124432 | 74 | 182 | 5.2 | 10.4 | 0.00 | 0.00 | 0.00 | 52 | 1023.8 |
| 20260906123932 | 74 | 145 | 5.2 | 10.4 | 0.00 | 0.00 | 0.00 | 52 | 1023.7 |
| 20260906123432 | 74 | 148 | 4.3 | 10.4 | 0.00 | 0.00 | 0.00 | 51 | 1023.9 |
| 20260906122933 | 75 | 100 | 7.0 | 10.4 | 0.00 | 0.00 | 0.00 | 50 | 1023.9 |
| 20260906122431 | 74 | 157 | 2.6 | 10.4 | 0.00 | 0.00 | 0.00 | 53 | 1024.0 |
| 20260906121934 | 74 | 159 | 5.2 | 10.4 | 0.00 | 0.00 | 0.00 | 51 | 1024.1 |
| 20260906121826 | 73 | 158 | 5.2 | 12.2 | 0.00 | 0.00 | 0.00 | 52 | 1024.0 |
| 20260906120933 | 73 | 151 | 2.6 | 12.2 | 0.00 | 0.00 | 0.00 | 52 | 1024.0 |
| 20260906120432 | 73 | 151 | 6.1 | 8.7 | 0.00 | 0.00 | 0.00 | 51 | 1024.0 |
| 20260906115931 | 73 | 145 | 2.6 | 10.4 | 0.00 | 0.00 | 0.00 | 51 | 1024.0 |
| 20260906115431 | 73 | 161 | 6.1 | 10.4 | 0.00 | 0.00 | 0.00 | 52 | 1024.2 |
| 20260906114932 | 73 | 180 | 5.2 | 10.4 | 0.00 | 0.00 | 0.00 | 53 | 1024.3 |
| 20260906114430 | 73 | 104 | 7.0 | 10.4 | 0.00 | 0.00 | 0.00 | 53 | 1024.3 |
| 20260906113931 | 73 | 141 | 3.5 | 12.2 | 0.00 | 0.00 | 0.00 | 53 | 1024.5 |
| 20260906113822 | 73 | 148 | 6.1 | 12.2 | 0.00 | 0.00 | 0.00 | 53 | 1024.5 |
| 20260906112930 | 72 | 152 | 6.1 | 10.4 | 0.00 | 0.00 | 0.00 | 53 | 1024.7 |
| 20260906112826 | 72 | 145 | 3.5 | 9.6 | 0.00 | 0.00 | 0.00 | 53 | 1024.7 |
| 20260906111931 | 72 | 148 | 3.5 | 10.4 | 0.00 | 0.00 | 0.00 | 53 | 1024.7 |
| 20260906111430 | 72 | 148 | 7.0 | 10.4 | 0.00 | 0.00 | 0.00 | 53 | 1024.8 |
| 20260906110930 | 72 | 140 | 7.0 | 10.4 | 0.00 | 0.00 | 0.00 | 53 | 1024.7 |
| 20260906110430 | 71 | 169 | 4.3 | 9.6 | 0.00 | 0.00 | 0.00 | 53 | 1024.8 |
| 20260906105929 | 72 | 109 | 4.3 | 9.6 | 0.00 | 0.00 | 0.00 | 52 | 1024.8 |
| 20260906105431 | 72 | 145 | 4.3 | 11.3 | 0.00 | 0.00 | 0.00 | 52 | 1024.9 |
| 20260906104931 | 72 | 165 | 7.0 | 11.3 | 0.00 | 0.00 | 0.00 | 51 | 1025.1 |
| 20260906104429 | 71 | 117 | 1.7 | 10.4 | 0.00 | 0.00 | 0.00 | 52 | 1025.2 |
| 20260906103929 | 70 | 154 | 5.2 | 10.4 | 0.00 | 0.00 | 0.00 | 52 | 1025.3 |
| 20260906103430 | 70 | 148 | 5.2 | 7.8 | 0.00 | 0.00 | 0.00 | 52 | 1025.3 |
| 20260906102930 | 70 | 130 | 2.6 | 12.2 | 0.00 | 0.00 | 0.00 | 53 | 1025.3 |
| 20260906102428 | 70 | 155 | 7.0 | 12.2 | 0.00 | 0.00 | 0.00 | 52 | 1025.4 |
| 20260906101928 | 70 | 172 | 7.0 | 11.3 | 0.00 | 0.00 | 0.00 | 54 | 1025.5 |
| 20260906101428 | 69 | 148 | 4.3 | 7.8 | 0.00 | 0.00 | 0.00 | 55 | 1025.4 |
| 20260906101314 | 69 | 144 | 3.5 | 7.8 | 0.00 | 0.00 | 0.00 | 55 | 1025.4 |
| 20260906100429 | 68 | 164 | 2.6 | 8.7 | 0.00 | 0.00 | 0.00 | 55 | 1025.6 |
| 20260906095929 | 68 | 140 | 3.5 | 11.3 | 0.00 | 0.00 | 0.00 | 55 | 1025.6 |
| 20260906095430 | 68 | 161 | 6.1 | 11.3 | 0.00 | 0.00 | 0.00 | 54 | 1025.8 |
| 20260906094928 | 69 | 172 | 7.0 | 11.3 | 0.00 | 0.00 | 0.00 | 53 | 1025.8 |
| 20260906094429 | 69 | 168 | 6.1 | 13.9 | 0.00 | 0.00 | 0.00 | 56 | 1025.6 |
| 20260906093927 | 68 | 155 | 8.7 | 13.9 | 0.00 | 0.00 | 0.00 | 55 | 1025.7 |
| 20260906093428 | 69 | 85 | 5.2 | 9.6 | 0.00 | 0.00 | 0.00 | 56 | 1025.7 |
| 20260906092928 | 69 | 134 | 5.2 | 8.7 | 0.00 | 0.00 | 0.00 | 57 | 1025.6 |
| 20260906092427 | 68 | 172 | 2.6 | 9.6 | 0.00 | 0.00 | 0.00 | 59 | 1025.5 |
| 20260906091924 | 67 | 169 | 4.3 | 12.2 | 0.00 | 0.00 | 0.00 | 59 | 1025.7 |
| 20260906091425 | 67 | 137 | 6.1 | 12.2 | 0.00 | 0.00 | 0.00 | 59 | 1025.8 |
| 20260906090925 | 67 | 149 | 5.2 | 10.4 | 0.00 | 0.00 | 0.00 | 60 | 1026.0 |
| 20260906090422 | 67 | 142 | 6.1 | 10.4 | 0.00 | 0.00 | 0.00 | 59 | 1026.0 |
| 20260906085919 | 67 | 164 | 3.5 | 9.6 | 0.00 | 0.00 | 0.00 | 62 | 1026.0 |
| 20260906085419 | 67 | 183 | 7.0 | 9.6 | 0.00 | 0.00 | 0.00 | 60 | 1026.0 |
| 20260906084919 | 67 | 151 | 5.2 | 9.6 | 0.00 | 0.00 | 0.00 | 61 | 1026.0 |
| 20260906084417 | 66 | 155 | 3.5 | 10.4 | 0.00 | 0.00 | 0.00 | 62 | 1026.0 |
| 20260906083932 | 66 | 155 | 4.3 | 10.4 | 0.00 | 0.00 | 0.00 | 62 | 1026.0 |
| 20260906083418 | 66 | 120 | 2.6 | 10.4 | 0.00 | 0.00 | 0.00 | 65 | 1026.0 |
| 20260906082929 | 65 | 147 | 5.2 | 10.4 | 0.00 | 0.00 | 0.00 | 64 | 1025.8 |
| 20260906082416 | 65 | 172 | 5.2 | 9.6 | 0.00 | 0.00 | 0.00 | 65 | 1026.0 |
| 20260906081913 | 65 | 144 | 5.2 | 9.6 | 0.00 | 0.00 | 0.00 | 66 | 1025.9 |
| 20260906081413 | 65 | 137 | 2.6 | 7.8 | 0.00 | 0.00 | 0.00 | 69 | 1025.8 |
| 20260906080915 | 64 | 149 | 3.5 | 7.8 | 0.00 | 0.00 | 0.00 | 68 | 1026.0 |
| 20260906080407 | 64 | 145 | 0.9 | 6.1 | 0.00 | 0.00 | 0.00 | 70 | 1026.0 |
| 20260906075904 | 63 | 161 | 2.6 | 6.1 | 0.00 | 0.00 | 0.00 | 70 | 1026.0 |
| 20260906075404 | 63 | 157 | 0.0 | 6.1 | 0.00 | 0.00 | 0.00 | 72 | 1026.0 |
| 20260906074903 | 63 | 152 | 2.6 | 6.1 | 0.00 | 0.00 | 0.00 | 71 | 1026.1 |
| 20260906074404 | 62 | 120 | 0.9 | 3.5 | 0.00 | 0.00 | 0.00 | 72 | 1026.0 |
| 20260906073904 | 62 | 127 | 0.9 | 3.5 | 0.00 | 0.00 | 0.00 | 73 | 1026.2 |
| 20260906073407 | 62 | 152 | 0.9 | 6.1 | 0.00 | 0.00 | 0.00 | 74 | 1026.1 |
| 20260906072903 | 61 | 157 | 3.5 | 6.1 | 0.00 | 0.00 | 0.00 | 75 | 1026.2 |
| 20260906072404 | 60 | 172 | 3.5 | 6.1 | 0.00 | 0.00 | 0.00 | 75 | 1026.1 |
| 20260906071903 | 60 | 152 | 4.3 | 6.1 | 0.00 | 0.00 | 0.00 | 76 | 1026.2 |
| 20260906071405 | 60 | 154 | 1.7 | 5.2 | 0.00 | 0.00 | 0.00 | 76 | 1026.2 |
| 20260906070903 | 60 | 149 | 4.3 | 5.2 | 0.00 | 0.00 | 0.00 | 77 | 1026.1 |
| 20260906070754 | 60 | 134 | 0.9 | 4.3 | 0.00 | 0.00 | 0.00 | 78 | 1026.1 |
| 20260906070252 | 59 | 144 | 1.7 | 4.3 | 0.00 | 0.00 | 0.00 | 79 | 1026.2 |
| 20260906065404 | 59 | 165 | 0.0 | 0.0 | 0.00 | 0.00 | 0.00 | 81 | 1026.3 |
| 20260906064903 | 58 | 165 | 0.0 | 0.0 | 0.00 | 0.00 | 0.00 | 82 | 1026.3 |
| 20260906064405 | 57 | 165 | 0.0 | 3.5 | 0.00 | 0.00 | 0.00 | 83 | 1026.1 |
| 20260906063903 | 56 | 165 | 0.9 | 3.5 | 0.00 | 0.00 | 0.00 | 85 | 1026.2 |
| 20260906063751 | 56 | 165 | 1.7 | 3.5 | 0.00 | 0.00 | 0.00 | 85 | 1026.1 |
| 20260906063144 | 54 | 252 | 0.0 | 0.0 | 0.00 | 0.00 | 0.00 | 88 | 1026.4 |
| 20260906063029 | 0 | 254 | 0.0 | 0.0 | 0.00 | 0.00 | 0.00 | 1026.2 | |
| 20260906061905 | 53 | 254 | 0.0 | 0.0 | 0.00 | 0.00 | 0.00 | 90 | 1026.2 |
| 20260906061753 | 53 | 254 | 0.0 | 0.0 | 0.00 | 0.00 | 0.00 | 90 | 1026.3 |
| 20260906060904 | 52 | 254 | 0.0 | 0.0 | 0.00 | 0.00 | 0.00 | 90 | 1026.3 |
| 20260906060404 | 52 | 254 | 0.0 | 0.0 | 0.00 | 0.00 | 0.00 | 91 | 1026.2 |
| 20260906055903 | 51 | 254 | 0.0 | 0.0 | 0.00 | 0.00 | 0.00 | 91 | 1026.1 |
| 20260906055404 | 50 | 254 | 0.0 | 0.0 | 0.00 | 0.00 | 0.00 | 91 | 1026.1 |
| 20260906054903 | 50 | 254 | 0.0 | 0.0 | 0.00 | 0.00 | 0.00 | 91 | 1026.1 |
| 20260906054406 | 49 | 254 | 0.0 | 0.0 | 0.00 | 0.00 | 0.00 | 91 | 1026.3 |
| 20260906053904 | 49 | 254 | 0.0 | 0.0 | 0.00 | 0.00 | 0.00 | 91 | 1026.4 |
| 20260906053407 | 49 | 254 | 0.0 | 0.0 | 0.00 | 0.00 | 0.00 | 91 | 1026.4 |
| 20260906052904 | 48 | 254 | 0.0 | 0.0 | 0.00 | 0.00 | 0.00 | 91 | 1026.2 |
| 20260906052403 | 48 | 254 | 0.0 | 0.0 | 0.00 | 0.00 | 0.00 | 90 | 1026.3 |
| 20260906051904 | 48 | 254 | 0.0 | 0.0 | 0.00 | 0.00 | 0.00 | 90 | 1026.3 |
| 20260906051405 | 48 | 254 | 0.0 | 0.0 | 0.00 | 0.00 | 0.00 | 90 | 1026.3 |
| 20260906050905 | 48 | 254 | 0.0 | 0.0 | 0.00 | 0.00 | 0.00 | 90 | 1026.1 |
| 20260906050405 | 48 | 254 | 0.0 | 0.0 | 0.00 | 0.00 | 0.00 | 90 | 1026.2 |
| 20260906045907 | 48 | 254 | 0.0 | 0.0 | 0.00 | 0.00 | 0.00 | 90 | 1026.1 |
| 20260906045748 | 48 | 254 | 0.0 | 0.0 | 0.00 | 0.00 | 0.00 | 90 | 1026.1 |
| 20260906044905 | 48 | 254 | 0.0 | 0.0 | 0.00 | 0.00 | 0.00 | 90 | 1026.0 |
| 20260906044405 | 48 | 254 | 0.0 | 0.0 | 0.00 | 0.00 | 0.00 | 90 | 1026.1 |
| 20260906043905 | 48 | 254 | 0.0 | 0.0 | 0.00 | 0.00 | 0.00 | 90 | 1026.2 |
| 20260906043405 | 48 | 254 | 0.0 | 0.0 | 0.00 | 0.00 | 0.00 | 90 | 1026.3 |
| 20260906042904 | 48 | 254 | 0.0 | 0.0 | 0.00 | 0.00 | 0.00 | 90 | 1026.4 |
| 20260906042405 | 48 | 254 | 0.0 | 0.0 | 0.00 | 0.00 | 0.00 | 90 | 1026.3 |
| 20260906042148 | 48 | 254 | 0.0 | 0.0 | 0.00 | 0.00 | 0.00 | 90 | 1026.3 |
| 20260906042031 | 48 | 254 | 0.0 | 0.0 | 0.00 | 0.00 | 0.00 | 90 | 1026.2 |
| 20260906041247 | 48 | 254 | 0.0 | 0.0 | 0.00 | 0.00 | 0.00 | 90 | 1026.2 |
| 20260906040405 | 48 | 254 | 0.0 | 0.0 | 0.00 | 0.00 | 0.00 | 90 | 1026.4 |
| 20260906035904 | 48 | 254 | 0.0 | 0.0 | 0.00 | 0.00 | 0.00 | 90 | 1026.3 |
| 20260906035753 | 48 | 254 | 0.0 | 0.0 | 0.00 | 0.00 | 0.00 | 90 | 1026.4 |
| 20260906034904 | 48 | 254 | 0.0 | 0.0 | 0.00 | 0.00 | 0.00 | 90 | 1026.5 |
| 20260906034404 | 48 | 254 | 0.0 | 0.0 | 0.00 | 0.00 | 0.00 | 90 | 1026.5 |
| 20260906033904 | 48 | 254 | 0.0 | 0.0 | 0.00 | 0.00 | 0.00 | 90 | 1026.7 |
| 20260906033404 | 48 | 254 | 0.0 | 0.0 | 0.00 | 0.00 | 0.00 | 90 | 1026.8 |
| 20260906032904 | 48 | 254 | 0.0 | 0.0 | 0.00 | 0.00 | 0.00 | 90 | 1026.6 |
| 20260906032404 | 48 | 254 | 0.0 | 0.0 | 0.00 | 0.00 | 0.00 | 90 | 1026.8 |
| 20260906031904 | 48 | 254 | 0.0 | 0.0 | 0.00 | 0.00 | 0.00 | 90 | 1026.8 |
| 20260906031405 | 48 | 254 | 0.0 | 0.0 | 0.00 | 0.00 | 0.00 | 90 | 1026.8 |
| 20260906030916 | 48 | 254 | 0.0 | 0.0 | 0.00 | 0.00 | 0.00 | 90 | 1026.8 |
| 20260906030404 | 49 | 254 | 0.0 | 0.0 | 0.00 | 0.00 | 0.00 | 90 | 1026.8 |
| 20260906025905 | 49 | 254 | 0.0 | 0.0 | 0.00 | 0.00 | 0.00 | 90 | 1026.7 |
| 20260906025409 | 49 | 254 | 0.0 | 0.0 | 0.00 | 0.00 | 0.00 | 90 | 1026.8 |
| 20260906024906 | 49 | 254 | 0.0 | 0.0 | 0.00 | 0.00 | 0.00 | 89 | 1026.7 |
| 20260906024406 | 49 | 254 | 0.0 | 0.0 | 0.00 | 0.00 | 0.00 | 90 | 1026.7 |
| 20260906024242 | 49 | 254 | 0.0 | 0.0 | 0.00 | 0.00 | 0.00 | 90 | 1026.8 |
| 20260906023405 | 49 | 254 | 0.0 | 0.0 | 0.00 | 0.00 | 0.00 | 89 | 1026.8 |
| 20260906022905 | 49 | 254 | 0.0 | 0.0 | 0.00 | 0.00 | 0.00 | 89 | 1026.9 |
| 20260906022405 | 49 | 254 | 0.0 | 0.0 | 0.00 | 0.00 | 0.00 | 90 | 1026.7 |
| 20260906021904 | 49 | 254 | 0.0 | 0.0 | 0.00 | 0.00 | 0.00 | 89 | 1026.8 |
| 20260906021404 | 49 | 254 | 0.0 | 0.0 | 0.00 | 0.00 | 0.00 | 89 | 1026.8 |
| 20260906021248 | 49 | 254 | 0.0 | 0.0 | 0.00 | 0.00 | 0.00 | 89 | 1027.0 |
| 20260906020407 | 49 | 254 | 0.0 | 0.0 | 0.00 | 0.00 | 0.00 | 89 | 1027.2 |
| 20260906015903 | 49 | 254 | 0.0 | 0.0 | 0.00 | 0.00 | 0.00 | 89 | 1027.2 |
| 20260906015403 | 49 | 254 | 0.0 | 0.0 | 0.00 | 0.00 | 0.00 | 89 | 1027.1 |
| 20260906014903 | 49 | 255 | 0.0 | 0.0 | 0.00 | 0.00 | 0.00 | 89 | 1027.2 |
| 20260906014750 | 49 | 255 | 0.0 | 0.0 | 0.00 | 0.00 | 0.00 | 89 | 1027.2 |
| 20260906013904 | 49 | 254 | 0.0 | 0.0 | 0.00 | 0.00 | 0.00 | 89 | 1027.2 |
| 20260906013403 | 50 | 254 | 0.0 | 2.6 | 0.00 | 0.00 | 0.00 | 89 | 1027.3 |
| 20260906012906 | 50 | 255 | 0.0 | 3.5 | 0.00 | 0.00 | 0.00 | 89 | 1027.1 |
| 20260906012404 | 49 | 255 | 1.7 | 3.5 | 0.00 | 0.00 | 0.00 | 89 | 1027.0 |
| 20260906011906 | 49 | 255 | 0.0 | 0.0 | 0.00 | 0.00 | 0.00 | 89 | 1026.9 |
| 20260906011418 | 50 | 255 | 0.0 | 0.0 | 0.00 | 0.00 | 0.00 | 89 | 1027.0 |
| 20260906011306 | 50 | 255 | 0.0 | 0.0 | 0.00 | 0.00 | 0.00 | 89 | 1026.8 |
| 20260906010403 | 50 | 255 | 0.0 | 0.0 | 0.00 | 0.00 | 0.00 | 89 | 1026.8 |
| 20260906005905 | 50 | 255 | 0.0 | 0.0 | 0.00 | 0.00 | 0.00 | 89 | 1026.8 |
| 20260906005404 | 50 | 255 | 0.0 | 0.0 | 0.00 | 0.00 | 0.00 | 89 | 1026.9 |
| 20260906004903 | 50 | 255 | 0.0 | 0.0 | 0.00 | 0.00 | 0.00 | 89 | 1026.9 |
| 20260906004740 | 50 | 255 | 0.0 | 0.0 | 0.00 | 0.00 | 0.00 | 88 | 1026.9 |
| 20260906003905 | 50 | 255 | 0.0 | 0.0 | 0.00 | 0.00 | 0.00 | 89 | 1026.9 |
| 20260906003403 | 50 | 255 | 0.0 | 0.0 | 0.00 | 0.00 | 0.00 | 88 | 1026.9 |
| 20260906002903 | 50 | 255 | 0.0 | 0.0 | 0.00 | 0.00 | 0.00 | 89 | 1027.0 |
| 20260906002405 | 50 | 255 | 0.0 | 0.0 | 0.00 | 0.00 | 0.00 | 89 | 1026.8 |
| 20260906001905 | 50 | 255 | 0.0 | 0.0 | 0.00 | 0.00 | 0.00 | 88 | 1026.9 |
| 20260906001746 | 50 | 255 | 0.0 | 0.0 | 0.00 | 0.00 | 0.00 | 88 | 1027.0 |
| 20260906000906 | 51 | 255 | 0.0 | 0.0 | 0.00 | 0.00 | 0.00 | 88 | 1027.0 |
| 20260906000405 | 51 | 255 | 0.0 | 0.0 | 0.00 | 0.00 | 0.00 | 88 | 1027.1 |
| 20260905235904 | 51 | 255 | 0.0 | 0.0 | 0.00 | 0.00 | 0.00 | 88 | 1027.0 |
| 20260905235405 | 51 | 255 | 0.0 | 0.0 | 0.00 | 0.00 | 0.00 | 88 | 1026.9 |
| 20260905234904 | 51 | 255 | 0.0 | 0.0 | 0.00 | 0.00 | 0.00 | 88 | 1026.7 |
| 20260905234403 | 51 | 255 | 0.0 | 0.0 | 0.00 | 0.00 | 0.00 | 88 | 1026.9 |
| 20260905233903 | 51 | 255 | 0.0 | 0.0 | 0.00 | 0.00 | 0.00 | 87 | 1026.8 |
| 20260905233407 | 51 | 255 | 0.0 | 0.0 | 0.00 | 0.00 | 0.00 | 87 | 1026.7 |
| 20260905232903 | 51 | 255 | 0.0 | 0.0 | 0.00 | 0.00 | 0.00 | 87 | 1026.6 |
| 20260905232404 | 51 | 255 | 0.0 | 0.0 | 0.00 | 0.00 | 0.00 | 88 | 1026.7 |
| 20260905232147 | 51 | 255 | 0.0 | 0.0 | 0.00 | 0.00 | 0.00 | 87 | 1026.7 |
| 20260905232035 | 51 | 255 | 0.0 | 0.0 | 0.00 | 0.00 | 0.00 | 88 | 1026.6 |